Location: Friedrichshafen
(47.6598°N, 9.4819°E)
Time: 11:27:29
(UTC+01:00)

ISS - Pass Details

Date: 16 November 2017
Orbit: 402 x 407 km, 51.6° (Epoch: 19 November)

Event Time Altitude Azimuth Distance (km) Brightness Sun altitude
Exits shadow 05:38:16 37° 205° (SSW) 648 -3.0 -18.5°
Drops below altitude 10° 05:41:06 10° 146° (SE) 1,449 -0.4 -18.0°
Sets 05:43:14 0° 137° (SE) 2,304 0.8 -17.7°
